Location: Kalisz
(51.7636°N, 18.0893°E)
Time: 06:32:14
(UTC+02:00)

ISS - Pass Details

Date: 26 March 2019
Orbit: 408 x 410 km, 51.6° (Epoch: 22 April)

Event Time Altitude Azimuth Distance (km) Brightness Sun altitude
Rises 19:23:44 0° 246° (WSW) 2,333 0.8 -11.9°
Reaches altitude 10° 19:25:50 10° 243° (WSW) 1,473 -0.4 -12.2°
Maximum altitude 19:29:05 61° 163° (SSE) 471 -3.7 -12.7°
Enters shadow 19:31:01 22° 88° (E) 946 -2.5 -12.9°
